Location: Unspecified
(0.0000°N, 0.0000°E)
Time: 17:26:09
(UTC+00:00)

Courier 1B Rocket - Pass Details

Date: 05 October 2020
Orbit: 921 x 1202 km, 28.2° (Epoch: 27 October)

Event Time Altitude Azimuth Distance (km) Brightness Sun altitude
Rises 23:48:07 0° 243° (WSW) 4,087 - -84.8°
Reaches altitude 10° 23:51:01 10° 244° (WSW) 3,107 - -84.7°
Maximum altitude 23:58:45 76° 329° (NNW) 1,177 - -84.2°
Drops below altitude 10° 00:06:03 10° 55° (NE) 2,935 - -83.1°
Sets 00:08:43 0° 56° (ENE) 3,849 - -82.7°
